LFMU

Details ICAO LFMU (BZR)
Name Beziers Vias
Region France
Timezone Europe/Paris (UTC+2.0)
Plans Departing 450
Arriving 537
Stats Elevation 54 ft / 16 m (AMSL)
Location 43.323300° 3.354690°
Runways 1
Magnetic Variation 1.853° E
Sunrise 2024-06-13 04:07:04 UTC / 2024-06-13 06:07:04 Local
Sunset 2024-06-13 19:29:03 UTC / 2024-06-13 21:29:03 Local
Advertisement - Login to hide

Runways

ID Width Length Bearing (true/mag) Surface Threshold Overrun Markings Lighting
09 148 ft / 45 m 6,568 ft / 2,002 m 94.39° / 92.54° ASPHALT 0 ft / 0 m 154 ft / 47 m PREC-APP EDGE THRESHOLD REIL-OMNI
27 148 ft / 45 m 6,568 ft / 2,002 m 274.41° / 272.55° ASPHALT 0 ft / 0 m 151 ft / 46 m PREC-APP EDGE THRESHOLD REIL-OMNI

Approach Navaids

Runway Type Ident Frequency Range Bearing (true/mag) Slope Elevation
09 DME ZR 109.35 MHz 18 nm / 33 km - - 92 ft / 28 m (AMSL)

Map

Weather


0- 5 10 15 20 25 30 35+ Temperature / °C

Clouds and Precipitation
Forecast for 2024-04-15 18:00 UTC. Updated 2 months ago

Ground ~20,000 ft ~40,000 ft Winds

METAR

LFMU 130900Z AUTO 30005KT 220V360 CAVOK 21/07 Q1019 NOSIG

TAF

TAF LFMU 130800Z 1309/1409 30007KT CAVOK BECMG 1312/1314 18015G25KT BECMG 1319/1321 05005KT BECMG 1407/1409 08012KT

Frequencies

Approach 120.17 MHz Beziers Approach
Tower 120.17 MHz tower
Recorded 127.52 MHz Beziers Atis
Warning: Do not use this data for real-world aviation or navigation. No guarantee of current accuracy is given.